Regional Weather Roundup
Issued by NWS Pendleton, OR

Home | Current Version | Previous Version | Text Only | Print | Product List | Glossary On
Versions: 1 2 3 4 5 6 7 8 9 10 11 12 13 14 15 16 17 18 19 20 21 22 23 24 25 26 27 28 29 30 31 32 33 34 35 36 37 38 39 40 41 42 43 44 45 46 47 48 49 50
854
ASUS46 KPDT 241725
RWRPDT
PENDLETON REGIONAL WEATHER ROUNDUP
NATIONAL WEATHER SERVICE PENDLETON OREGON
1000 AM PDT FRI MAR 24 2017

NOTE: FAIR INDICATES FEW OR NO CLOUDS BELOW 12,000 FEET WITH NO
SIGNIFICANT WEATHER AND/OR OBSTRUCTIONS TO VISIBILITY.

# INDICATES UNOFFICIAL STATION AND DATA

WAZ520-241810-
EAST SLOPES OF WASHINGTON CASCADES

CITY            SKY/WX      TMP DP  RH  WIND    PRES   REMARKS
#CLE ELUM HS    N/A         39  36  89  CALM    29.78S
#CLE ELUM LAKE  N/A         34  33  96  CALM    29.81R
#GLENWOOD       N/A         39  38  96  S1      29.84R
#NELSON 3SW     N/A         33  32  96  CALM    30.04S
#NILE           N/A         37  36  96  CALM    29.10S
#TEANAWAY 4NE   N/A         36  36  100 CALM    N/A
#TROUT LAKE 1NE N/A         38  37  96  CALM    29.86S
#TROUT LAKE 1E  N/A         37  36  96  CALM    29.85S
$$

WAZ521-241810-
SIMCOE HIGHLANDS

CITY            SKY/WX      TMP DP  RH  WIND    PRES   REMARKS
#BICKLETON HS   N/A         41  41  100 S10     29.85F
#CENTERVILLE 1SWN/A         41  37  86  W7      29.80R
#GOLDENDALE 1NE N/A         45  41  86  S3      N/A
#GOLDENDALE 4W  N/A         42  33  70  W3      29.85R
#GOODNOE HILLS  N/A         44  41  89  SE3     29.75R
#LYLE 6NE       N/A         39  38  96  S6      29.82R
#PITT 4SE       N/A         38  37  96  SW3     29.86S
$$

WAZ026-241810-
KITTITAS VALLEY

CITY            SKY/WX      TMP DP  RH  WIND    PRES   REMARKS
ELLENSBURG AP   LGT RAIN    42  38  86  MISG    29.81F
#ELLENSBURG CWU N/A         39  37  92  E2      29.77S
#ELLENSBURG 3NE N/A         39  37  92  CALM    27.91S
#ELLENSBURG 1E  N/A         39  N/A N/A CALM    N/A
#ELLENSBURG 13S N/A         42  38  86  CALM    N/A
#KITTITAS 4N    N/A         40  36  85  CALM    29.84S
#KITTITAS 3S    N/A         39  37  92  CALM    29.82F
#THORP 6N       N/A         37  36  96  E9      29.85S
$$

WAZ027-241810-
YAKIMA VALLEY

CITY            SKY/WX      TMP DP  RH  WIND    PRES   REMARKS
SUNNYSIDE AP    LGT DRIZZLE 45  45  100 E6      29.84S
YAKIMA AIRPORT  LGT RAIN    45  41  86  W6      29.84S
YAKIMA-VAGABOND LGT RAIN    41  40  96  CALM    29.81S
#DONALD 2NE     N/A         44  36  73  SW2     28.69S
#GRANDVIEW      N/A         46  44  93  CALM    29.85F
#MABTON         N/A         45  44  96  E3      29.83F
#MOXEE 2E       N/A         41   0  17  NW3     29.81R
#NACHES 2SW     N/A         40  38  92  CALM    29.82S
#TERRACE HTS    N/A         42  41  96  CALM    29.81S
#TOPPENISH      N/A         44  42  93  CALM    29.76F
#WEST VALLEY    N/A         42  40  93  CALM    29.83S
#W YAKIMA       N/A         42  41  96  CALM    29.84F
#WHITE SWAN 5E  N/A         43  41  93  CALM    29.85S
#WILEY CITY 3W  N/A         41  36  82  CALM    29.80S
$$

WAZ028-241810-
LOWER COLUMBIA BASIN...WASHINGTON

CITY            SKY/WX      TMP DP  RH  WIND    PRES   REMARKS
HANFORD         LGT RAIN    42  41  96  E5      29.85F
PASCO           RAIN        47  45  93  SE6     29.87F FOG
PROSSER AWOS    N/A         45  43  93  NE9     29.87F
RICHLAND AWOS   LGT RAIN    45  44  96  CALM    29.87F
#BENTON CITY    N/A         42  41  96  NE1     29.78F
#CONNELL 5N     N/A         44  43  96  SE6     29.88S
#CONNELL 5NW    N/A         44  43  96  SE7     29.82F
#ELTOPIA 6NW    N/A         43  42  96  CALM    28.83F
#KAHLOTUS       N/A         42  40  93  CALM    29.88F
#KENNEWICK 3S   N/A         45  44  96  CALM    29.86F
#PATERSON       N/A         48  46  93  SE6     29.83F
#SAGEMOOR 2W    N/A         45  43  93  E2      29.73F
#TOUCHET 2S     N/A         44  42  93  CALM    29.86F
#WEST PASCO     N/A         45  42  89  CALM    29.84F
$$

WAZ029-241810-
FOOTHILLS OF THE BLUES...WASHINGTON

CITY            SKY/WX      TMP DP  RH  WIND    PRES   REMARKS
WALLA WALLA AP  LGT RAIN    47  45  93  VRB5    29.87S FOG
#CLYDE 6NW      N/A         45  43  93  SW2     29.87F
#DAYTON SCHOOL  N/A         44  36  73  CALM    29.90S
#LOWDEN 2SE     N/A         47  46  96  E2      29.83F
#PLEASANT VIEW 1N/A         43  41  93  E1      29.91F
#PRESCOTT       N/A         46  44  93  CALM    29.87F
#WHITMAN COLLEGEN/A         47  44  89  CALM    29.92S
#WAITSBURG 5S   N/A         45  43  93  CALM    29.97S
#WAITSBURG 8N   N/A         45  N/A N/A S3      29.82S
#WALLA WALLA 5E N/A         49  44  83  W3      N/A
#WHITMAN MISSIONN/A         47  45  93  CALM    29.88F
$$

WAZ030-241810-
BLUE MOUNTAINS...WASHINGTON

CITY            SKY/WX      TMP DP  RH  WIND    PRES   REMARKS
#DIXIE 5SE      N/A         42  37  82  S10     29.77F
$$

ORZ009-041-WAZ024-241810-
COLUMBIA RIVER GORGE

CITY            SKY/WX      TMP DP  RH  WIND    PRES   REMARKS
HOOD RIVER AP   LGT DRIZZLE 43  43  100 CALM    29.87S
THE DALLES AP   LGT RAIN    47  44  89  N8      29.86R
#ARLINGTON AIRPON/A         44  43  96  CALM    29.86R
#ARLINGTON HS   N/A         46  44  93  SE7     29.77R
#CELILO DOT     N/A         47  43  86  S12     N/A    WCI 42
#LYLE           N/A         45  43  93  NW6     29.88S
#MOSIER 1S      N/A         44  40  86  CALM    29.85R
#MURDOCK        N/A         45  43  93  NW6     29.83R
#RUFUS DOT      N/A         46  46  100 NE6     N/A
#SMITHVILLE     N/A         46  44  93  N9      29.81R

$$

ORZ510-241810-
NORTH CENTRAL OREGON

CITY            SKY/WX      TMP DP  RH  WIND    PRES   REMARKS
#ANTELOPE       N/A         44  38  79  S7      29.69S
#CHENOWITH 1W   N/A         40  40  100 W12     N/A    WCI 33
#COW CYN RST AREN/A         43  38  82  S9      N/A
#DUFUR          N/A         43  42  96  CALM    29.81R
#DUFUR 9E       N/A         39  38  96  W5      29.89R
#GRASS VALLEY 1SN/A         44  42  93  SW7     29.96R
#KENT DOT       N/A         44  35  70  N13     N/A    WCI 38
#MAUPIN SCHOOL  N/A         45  43  93  CALM    29.88R
#MORO SCHOOL    N/A         43  43  100 CALM    29.90R
#SHANIKO 4NW    N/A         40  36  85  S18G30  29.78S WCI 31
#TYGH VALLEY 2NEN/A         45  43  93  CALM    29.82R
#WAPANITIA AIRPON/A         45  44  96  W2      29.84S
#WASCO 5NE      N/A         42  40  93  CALM    29.84R
$$

ORZ511-241810-
CENTRAL OREGON

CITY            SKY/WX      TMP DP  RH  WIND    PRES   REMARKS
BEND AIRPORT    CLOUDY      45  32  60  S24     29.82S WCI 36
MADRAS AIRPORT  PTCLDY      46  36  68  S24G33  29.83R WCI 38
PRINEVILLE AP   MOCLDY      46  34  63  S13     29.83R WCI 40
REDMOND AIRPORT CLOUDY      46  31  56  S14     29.82S WCI 40
#ASHWOOD SCHOOL N/A         46  38  73  S7      29.78S
#BEND 1SW       N/A         39  37  92  S2      N/A
#BEND-AWBREY    N/A         40  37  89  SW8     29.81S
#BEND-KIM LN    N/A         42  36  79  SE10    29.74S
#CULVER         N/A         45  35  68  S14G26  29.73S WCI 39
#CULVER 8W      N/A         46  37  71  SW2     29.83S
#LAKE BILLY CHINN/A         46  N/A N/A S9      29.91R
#POWELL BUTTE   N/A         44  32  62  S13     29.80S WCI 38
#PRINEVILLE     N/A         45  34  65  SE9     29.91S
#PRINEVILLE 3N  N/A         46  37  71  S6      29.80F
#WARM SPRINGS   N/A         48  41  77  CALM    29.79S

$$


ORZ509-241810-
EAST SLOPES OF OREGON CASCADES

CITY            SKY/WX      TMP DP  RH  WIND    PRES   REMARKS
SISTERS AWOS    N/A         43  37  79  CALM    29.79R
#BLUE BOX PASS  N/A         35  N/A N/A CALM    N/A
#CAMP SHERMAN   N/A         40  38  92  CALM    29.90R
#LA PINE DOT    N/A         37  31  79  S10     N/A
#LA PINE 4SW    N/A         36  33  89  E5      29.85S
#LAVA BUTTE DOT N/A         35  33  92  S2      N/A
#SISTERS 3N     N/A         43  36  76  CALM    29.85S
#SUNRIVER       N/A         37  35  92  S3      29.85R
#TUMALO 3W      N/A         40  35  82  SE6     29.70R
#WANOGA BUTTE D N/A         29  29  100 W13     N/A    WCI 19

$$

ORZ044-241810-
LOWER COLUMBIA BASIN...OREGON

CITY            SKY/WX      TMP DP  RH  WIND    PRES   REMARKS
HERMISTON       LGT RAIN    50  47  89  E8      29.83F
#BOARDMAN SCHOOLN/A         46  45  96  CALM    29.84F
#BOARDMAN 8SW   N/A         46  45  96  N1      29.83F
#ECHO 8SW       N/A         48  48  100 CALM    29.84F
#I-84 EX 198 DOTN/A         48  44  86  N17     N/A    WCI 42
#IONE SCHOOL    N/A         51  31  46  S2      29.84S
#UMATILLA       N/A         49  45  86  CALM    29.78S
$$

ORZ507-241810-
NORTHERN FOOTHILLS OF THE BLUES

CITY            SKY/WX      TMP DP  RH  WIND    PRES   REMARKS
PENDLETON AIRPT LGT RAIN    47  45  93  E8      29.84F FOG
#ADAMS 3WNW     N/A         46  43  89  CALM    29.85F
#ATHENA         N/A         45  41  86  S3      29.88F
#CAYUSE         N/A         46  44  93  SE15G28 29.83F WCI 40
#HELIX 3N       N/A         44  42  93  SE15    29.82F WCI 37
#HOLDMAN 5SE    N/A         46  44  93  E7      29.83F
#HOLDMAN 6E     N/A         45  44  96  NW5     29.66F
#M-F FERNDALE   N/A         48  44  86  CALM    29.84F
#M-F GROVE ELEM N/A         48  40  74  SE2     29.84S
#M-FREEWATER 5SEN/A         48  41  77  E5      29.86F
#PENDLETON DNTN N/A         47  43  86  NE2     29.83F
#PDT AQUATIC CTRN/A         47  46  96  NE5     29.85F
#PDT SUNRIDGE   N/A         47  45  93  CALM    29.86F
#PENDLETON 7NW  N/A         46  43  89  E3      27.83S
#PILOT ROCK 1S  N/A         48  38  68  W7      29.84S
#PILOT ROCK     N/A         50  42  74  SW8     29.85F
#TUTUILLA       N/A         47  43  86  W2      29.85F
#UMAPINE 2E     N/A         49  46  89  NE1     29.84F
#WESTON SCHOOL  N/A         45  39  79  SW7     29.86S

$$

ORZ508-241810-
SOUTHERN FOOTHILLS OF THE BLUES

CITY            SKY/WX      TMP DP  RH  WIND    PRES   REMARKS
LEXINGTON       CLOUDY      50  41  71  S18G25  29.84R
#AJAX           N/A         44  36  73  SE6     29.97S
#CONDON SCHOOL  N/A         43  39  86  S15     29.78R WCI 36
#CONDON 5W      N/A         40  36  85  S16G28  29.78R WCI 32
#FOSSIL SCHOOL  N/A         44  40  86  CALM    29.78F
#HEPPNER EOC    N/A         46  39  76  SE7     29.75S
#HEPPNER 4NE    N/A         44  39  82  S1      29.83R
#LEXINGTON 2SE  N/A         50  42  74  S15G25  29.78R
#OLEX 4N        N/A         43  42  96  E2      29.82S
#RUGGS 5NE      N/A         44  38  79  N8      29.98R
#RUGGS 2SW      N/A         43  37  79  S15G26  29.84R WCI 36

$$

ORZ502-503-241810-
BLUE MOUNTAINS

CITY            SKY/WX      TMP DP  RH  WIND    PRES   REMARKS
MEACHAM         LGT RAIN    38  34  85  CALM    29.85F
#BATTLE MTN DOT N/A         36  35  96  S12     N/A    WCI 28
#GREENHORN 9SW  N/A         33  N/A N/A CALM    26.12R
#HARDMAN 10S    N/A         34  33  96  SE6     29.97
#HEPPNER 15SE   N/A         38  34  85  E2      29.86R
#LADD CYN SMT   N/A         38  36  92  SE24    N/A    WCI 27
#LADD CREEK ODOTN/A         39  37  92  SW8     N/A
#LONG CREEK HS  N/A         40  38  92  SW24G37 N/A    WCI 30
#N POWDER DOT   N/A         40  37  89  SE23    N/A    WCI 30
#PIKES PEAK     N/A         40  38  92  W22     27.99S WCI 30
#TOLLGATE       N/A         32  31  96  SW2     29.73S
#TROY SCHOOL    N/A         40  38  92  CALM    29.80S
#UKIAH          N/A         40  38  92  CALM    29.81F
#WESTON 4E      N/A         39  37  92  SE10    29.83F
$$

ORZ505-241810-
JOHN DAY BASIN

CITY            SKY/WX      TMP DP  RH  WIND    PRES   REMARKS
JOHN DAY        LGT RAIN    42  37  82  S14     29.91R WCI 35
#JOHN DAY KJDY  N/A         45  N/A N/A E2      29.27F
#ANTELOPE 9ESE  N/A         48  41  77  NW2     N/A
#DAYVILLE SCHOOLN/A         43  38  82  E2      29.87F
#MITCHELL       N/A         44  39  82  E7      30.00F
#MITCHELL 8NW   N/A         40  36  85  SE1     29.65S
#MONUMENT HS    N/A         45  40  82  CALM    29.85R
#MT. VERNON 5SE N/A         38  34  85  S3      29.85R
#SPRAY SCHOOL   N/A         48  N/A N/A CALM    N/A
#WINLOCK        N/A         43  40  89  S7      29.83S
$$

ORZ506-241810-
OCHOCO AND JOHN DAY HIGHLANDS

CITY            SKY/WX      TMP DP  RH  WIND    PRES   REMARKS
#HORSE RIDGE DO N/A         40  32  73  SE22    N/A    WCI 30
#PAULINA SCHOOL N/A         43  31  62  S16     N/A    WCI 35
#PINE MTN OBS   N/A         29  28  96  SE13    N/A    WCI 19
#PRAIRIE CITY   N/A         43  36  76  CALM    30.06S
#SENECA         N/A         36  N/A N/A N7      N/A
#SENECA 9NW     N/A         35  34  96  CALM    29.91R
$$

ORZ049-241810-
GRANDE RONDE VALLEY

CITY            SKY/WX      TMP DP  RH  WIND    PRES   REMARKS
LA GRANDE       CLOUDY      43  36  76  S8G28   29.89F
#COVE           N/A         44  39  82  SE22    29.89F WCI 35
#COVE SCHOOL    N/A         44  37  76  E16G35  29.88F WCI 37
#COVE 6NW       N/A         43  37  79  S8      29.89F
#ELGIN 3N       N/A         42  35  76  S12     29.87F WCI 35
#ELGIN 1E       N/A         42  38  86  CALM    N/A
#IMBLER SCHOOL  N/A         41  37  86  S9      29.86S
#ISLAND CITY 4N N/A         46  44  93  SE1     29.88R
#LADD CYN DOT   N/A         42  38  86  S24     N/A    WCI 32
#UNION 1S       N/A         40  38  92  SE10    29.90F
$$

ORZ050-241810-
WALLOWA COUNTY

CITY            SKY/WX      TMP DP  RH  WIND    PRES   REMARKS
JOSEPH AIRPORT  CLOUDY      41  34  76  N10     29.86S
#IMNAHA SCHOOL  N/A         51  37  59  N14G26  29.91R
#IMNAHA 10S     N/A         45  37  73  SW8     29.91S
#JOSEPH 3N      N/A         43  30  60  W2      29.90F
#JOSEPH 3W      N/A         41  33  73  S3      29.71F
#LOSTINE        N/A         41  37  86  CALM    29.72S
#LOSTINE 3SE    N/A         40  36  85  NW1     29.91S
#MT HOWARD 8000 N/A         25  N/A N/A S25G54  29.74F WCI  9
#PROMISE 1S     N/A         36  35  96  CALM    30.05R
#WALLOWA SCHOOL N/A         38  36  92  CALM    29.87R



$$



USA.gov is the U.S. government's official web portal to all federal, state and local government web resources and services.